Current weather by "City, St" or "zip code"  
 
Advertise Here

Current Conditions: John Dunn Helistop, TX

Overcast and Breezy


70.0 F

Last Updated on Jan 25 2021, 3:55 am CST
Humidity: 94%
Wind Speed: S 24.2 G 33.4 mph
Barometer 29.71 in
Dewpoint: 68.0 F
Visibility: 7.00 mi
Precip: --
Heat Index: NA
Wind Chill: NA
Current conditions at:

John Dunn Helistop, TX (KMCJ)

Lat: 29.714 Lon: 95.395

Local Radar Image active severe weather and emergency alerts image image weather storm and storm spotter reports image weather observation monitoring service image
Local
Radar
Active
Alerts
Storm Reports Obs
Monitoring

Sign-up For Email & Text Message Weather Alert Notification Services


Advertise Here

Observation History for John Dunn Helistop, TX


Time Wind
(mph)
Vis
(mi)
Weather Precip (in) Temperature (F) Relative
Humidity
Wind
Chill
(F)
Heat
Index
(F)
Pressure
Air Dwpt altimeter
(in)
sea level
(mb)
Rmks
3:55 am CST S 24.2 G 33.4 7.00 Overcast and Breezy -- 70.0 68.0 94% NA NA 29.71 M
2:55 am CST S 12.7 G 26.5 7.00 Overcast -- 70.0 68.0 94% NA NA 29.74 M
1:55 am CST S 25.3 G 31.1 7.00 Overcast and Breezy -- 70.0 68.0 94% NA NA 29.72 M
12:55 am CST S 26.5 G 33.4 8.00 Overcast and Windy -- 70.0 68.0 94% NA NA 29.72 M
11:55 pm CST S 19.6 G 28.8 8.00 Overcast -- 72.0 69.8 94% NA NA 29.78 M
10:55 pm CST S 19.6 G 29.9 8.00 Overcast -- 70.0 68.0 94% NA NA 29.78 M
9:55 pm CST SE 21.9 G 28.8 7.00 Overcast and Breezy -- 70.0 68.0 94% NA NA 29.77 M
8:55 pm CST SE 20.7 G 27.6 7.00 Overcast and Breezy -- 70.0 68.0 94% NA NA 29.79 M
7:55 pm CST SE 12.7 G 24.2 8.00 Overcast -- 70.0 68.0 94% NA NA 29.81 M
6:55 pm CST SE 13.8 G 26.5 10.00 Overcast -- 70.0 68.0 94% NA NA 29.83 M
5:55 pm CST SE 18.4 G 29.9 10.00 Overcast -- 70.0 66.2 88% NA NA 29.84 M
4:55 pm CST S 18.4 10.00 Overcast -- 72.0 66.2 83% NA NA 29.85 M
3:55 pm CST S 25.3 G 33.4 10.00 Overcast and Breezy -- 73.0 66.2 78% NA NA 29.86 M
2:55 pm CST S 24.2 G 33.4 10.00 Mostly Cloudy and Breezy -- 75.0 66.2 74% NA NA 29.84 M
1:55 pm CST S 21.9 G 31.1 10.00 Mostly Cloudy and Breezy -- 75.0 66.2 74% NA NA 29.86 M
12:55 pm CST S 18.4 10.00 Mostly Cloudy -- 73.0 68.0 83% NA NA 29.89 M
11:55 am CST S 18.4 G 27.6 10.00 Overcast -- 70.0 69.8 100% NA NA 29.93 M
10:55 am CST S 13.8 G 21.9 4.00 Fog/Mist -- 70.0 69.8 100% NA NA 29.94 M
9:55 am CST SE 13.8 0.15 Fog -- 66.0 66.2 100% NA NA 29.94 M
8:55 am CST SE 9.2 0.15 Fog -- 64.0 64.4 100% NA NA 29.96 M
7:55 am CST E 6.9 0.15 Fog -- 63.0 62.6 100% 63 NA 29.95 M
6:55 am CST E 6.9 0.15 Fog -- 63.0 62.6 100% 63 NA 29.95 M
5:55 am CST SE 9.2 0.15 Fog -- 61.0 60.8 100% 60 NA 29.93 M
4:55 am CST SE 6.9 0.15 Fog -- 61.0 60.8 100% 60 NA 29.93 M

Regional Weather Observation


John Dunn Helistop, TX (KMCJ)

Overcast and Breezy
70.0 F

Houston Intercontinental Airport, TX (KIAH)

Overcast
72.0 F

Houston, Hooks Memorial Airport, TX (KDWH)

Overcast
71.0 F

Houston, Sugar Land Municipal / Hull Field Airport, TX (KSGR)

Overcast
74.0 F

Houston, Houston Hobby Airport, TX (KHOU)

Overcast
72.0 F

Houston Southwest Airport, TX (KAXH)

Overcast
70.0 F